Regional Weather Roundup
Issued by NWS Columbia, SC

Home | Current Version | Previous Version | Text Only | Print | Product List | Glossary On
Versions: 1 2 3 4 5 6 7 8 9 10 11 12 13 14 15 16 17 18 19 20 21 22 23 24 25 26 27 28 29 30 31 32 33 34 35 36 37 38 39 40 41 42 43 44 45 46 47 48 49 50
000
ASUS42 KCAE 050110
RWRCAE
REGIONAL WEATHER ROUNDUP
NATIONAL WEATHER SERVICE COLUMBIA SC
900 PM EDT FRI SEP 04 2015

NOTE: "FAIR" INDICATES FEW OR NO CLOUDS BELOW 12,000 FEET WITH NO
SIGNIFICANT WEATHER AND/OR OBSTRUCTIONS TO VISIBILITY.

NOT ALL STATIONS ARE QUALITY CONTROLLED BY THE NATIONAL
WEATHER SERVICE. USE DATA WITH CAUTION...ESPECIALLY
DEWPOINT OBSERVATIONS.

SCZ001>056-GAZ040-063>065-077-050200-
...UPSTATE SOUTH CAROLINA...

CITY           SKY/WX    TMP DP  RH WIND       PRES   REMARKS
ANDERSON       PTCLDY    82  67  60 VRB5      30.01R
LIBERTY        CLOUDY    74  68  82 N10       30.04R
SPARTANBURG    MOCLDY    79  64  61 SW6       30.05R
CLEMSON        PTCLDY    82  64  54 E5        30.04R
GREENVILLE     TSTM      72  63  73 N5        30.06R
GREENWOOD      PTCLDY    76  69  79 CALM      30.01R
GREER          TSTM      73  70  90 W7        30.04R
ROCK HILL      PTCLDY    80  64  58 NE3       30.04R
LAURENS        MOCLDY    81  73  78 N6        30.00R


...CENTRAL SOUTH CAROLINA...

CITY           SKY/WX    TMP DP  RH WIND       PRES   REMARKS
COLUMBIA APT   PTCLDY    85  70  60 W3        29.97R
COLUMBIA OWENS PTCLDY    84  71  65 SE5       29.98R
DARLINGTON     PTCLDY    81  68  65 N3        30.01R
FLORENCE       PTCLDY    80  75  84 CALM      29.99R
MCENTIRE ANGB  PTCLDY    80  72  75 SE5       29.98R
ORANGEBURG     PTCLDY    76  71  85 CALM      29.99R
SUMTER SHAW    FAIR      79  65  62 SE3       29.97R
NEWBERRY       PTCLDY    77  70  78 E5          N/A
AIKEN          FAIR      79  68  69 CALM      30.02R
BARNWELL       FAIR      77  75  94 CALM      29.98S
MANNING        FAIR      77  72  83 CALM      29.99R
CAMDEN         FAIR      82  70  65 SE5       29.99R
LANCASTER      PTCLDY    81  68  65 NE13G18   30.01R
WINNSBORO      LGT RAIN  77  68  73 N10       30.00S


...EASTERN AND COASTAL SOUTH CAROLINA...

CITY           SKY/WX    TMP DP  RH WIND       PRES   REMARKS
MYRTLE BEACH   CLEAR     81  72  74 S7        30.00R
N MYRTLE BCH   CLEAR     78  75  90 CALM      29.98S
CONWAY         FAIR      75  75 100 CALM      29.99R FOG
MARION         FAIR      81  72  74 CALM      29.98S
HARTSVILLE     FAIR      81  68  65 NE10      29.99R
FLORENCE       PTCLDY    80  75  84 CALM      29.99R
DARLINGTON     PTCLDY    81  68  65 N3        30.01R
CHARLESTON APT PTCLDY    76  70  82 N3        29.98R
MOUNT PLEASANT FAIR      77  75  94 CALM      29.98R FOG
WALTERBORO     PTCLDY    75  70  83 NE5       30.00R
BEAUFORT       MOCLDY    77  72  84 CALM      29.99R


...EASTERN GEORGIA...

CITY           SKY/WX    TMP DP  RH WIND       PRES   REMARKS
AUGUSTA BUSH F CLEAR     76  73  91 CALM      29.97R
AUGUSTA DANIEL CLEAR     83  69  62 SW3       29.99R
THOMSON        CLEAR     81  75  81 CALM      30.03R
WASHINGTON     FAIR      81  79  94 CALM      30.00R
STATESBORO     MOCLDY    74  74 100 CALM      29.98R
SAVANNAH       MOCLDY    76  73  91 NE6       29.99R


...SOUTHERN NORTH CAROLINA...

CITY           SKY/WX    TMP DP  RH WIND       PRES   REMARKS
CHARLOTTE      MOCLDY    79  60  52 NE10G20   30.05R
MONROE         PTCLDY    80  59  48 E7        30.02S
WADESBORO      LGT RAIN  78  68  71 N6        30.02S
ROCKINGHAM     MOCLDY    74  70  88 E3        30.01F
RUTHERFORDTON  MOCLDY    80  65  60 N6        30.06R
ASHEVILLE      CLEAR     71  62  73 N7        30.13R

$$



USA.gov is the U.S. government's official web portal to all federal, state and local government web resources and services.